Погода в Гумарине

Россия / Республика Карелия     62°57′49″N   33°07′01″E
темп.,
°C
ветер,
м/с
пор.,
м/с
влажн.,
%
обл.,
%
осадки,
мм/ч
давл.,
гПа
погр.,
м
4 августа, ср
ср400:00+10зюз61396100 0.1 997923
03:00+10зюз71494100 0.8 9991256
06:00+9зюз71589100 0.3 10001287
09:00+11зюз71577100 0.4 10021484
12:00+14з71464100 0.1 10041700
15:00+15зсз61356100 0.3 10081870
18:00+14сз4956100 0.1 10101701
21:00+10зюз237535 0.1 101248
5 августа, чт
чт500:00+8зюз21825 0.0 101414
03:00+7зюз11845 0.0 101515
06:00+9з11781 0.0 101632
09:00+15зюз12542 0.0 1017588
12:00+19зюз1240100 0.0 10172202
15:00+16юв1155100 0.0 1017116
18:00+16юв1263100 0.0 101780
21:00+13юв1165100 0.0 101811
6 августа, пт
пт600:00+12вюв1164100 0.0 101910
03:00+12в1169100 0.0 101910
06:00+12св1169100 0.0 101919
09:00+14в2558100 0.0 1020274
12:00+19в233747 0.0 10202095
15:00+20всв443443 0.0 10192398
18:00+18св444295 0.0 10191172
21:00+14всв3958100 0.0 1019286
7 августа, сб
сб700:00+10всв29765 0.0 1020160
03:00+9всв21812 0.0 102118
06:00+9св26783 0.0 1021165
09:00+16в48540 0.0 1021870
12:00+19в584219 0.0 10201922
15:00+20вюв584594 0.0 10192152
18:00+19вюв5105177 0.0 10191935
21:00+16в41162100 0.0 1019940
8 августа, вс
вс800:00+15в41266100 0.0 1019768
03:00+13в51471100 0.0 1018669
06:00+13в51471100 0.0 1018837
09:00+14в61470100 0.1 1017886
12:00+15вюв61369100 0.0 1017977
15:00+14вюв61284100 0.1 1017858
18:00+13вюв41092100 0.0 1017667
21:00+13вюв3997100 0.2 1017553